This is the latest recevied weather packets stored in our database for station/object K6TTR. If no packets are shown the sender has not sent any weather packets the latest 10 day(s).
| Time | Temp. | Humidity | Pressure | Rain* | Wind** | Luminosity | Snow |
|---|---|---|---|---|---|---|---|
| 1777923216 | 13.89° C | 68% | 1013.5 hPa | 0 mm | - | 1027 W/m² | - |
| 1777922918 | 13.89° C | 67% | 1013.5 hPa | 0 mm | - | 1053 W/m² | - |
| 1777922623 | 13.33° C | 69% | 1013.5 hPa | 0 mm | - | 1069 W/m² | - |
| 1777922330 | 13.89° C | 68% | 1013.5 hPa | 0 mm | - | 218 W/m² | - |
| 1777922015 | 13.33° C | 70% | 1013.6 hPa | 0 mm | - | 1074 W/m² | - |
| 1777921723 | 13.33° C | 69% | 1013.7 hPa | 0 mm | - | 828 W/m² | - |
| 1777921427 | 13.33° C | 70% | 1013.4 hPa | 0 mm | - | 949 W/m² | - |
| 1777921112 | 12.78° C | 72% | 1013.5 hPa | 0 mm | - | 1014 W/m² | - |
| 1777920816 | 12.78° C | 71% | 1013.7 hPa | 0 mm | - | 540 W/m² | - |
| 1777920520 | 12.78° C | 72% | 1013.7 hPa | 0 mm | - | 452 W/m² | - |
| 1777920226 | 12.22° C | 74% | 1013.8 hPa | 0 mm | - | 803 W/m² | - |
| 1777919926 | 11.67° C | 74% | 1014.1 hPa | 0 mm | - | 803 W/m² | - |
| 1777919631 | 11.67° C | 75% | 1014.1 hPa | 0 mm | - | 666 W/m² | - |
| 1777919315 | 11.67° C | 74% | 1013.9 hPa | 0 mm | - | 350 W/m² | - |
| 1777919020 | 11.67° C | 74% | 1014.2 hPa | 0 mm | - | 278 W/m² | - |
| 1777918727 | 11.67° C | 74% | 1014.2 hPa | 0 mm | - | 239 W/m² | - |
| 1777918411 | 11.11° C | 75% | 1014.2 hPa | 0 mm | - | 422 W/m² | - |
| 1777918115 | 11.11° C | 76% | 1014.2 hPa | 0 mm | - | 570 W/m² | - |
| 1777917821 | 11.11° C | 76% | 1014.2 hPa | 0 mm | - | 570 W/m² | - |
| 1777917526 | 10.56° C | 77% | 1014.2 hPa | 0 mm | - | 575 W/m² | - |
| 1777917212 | 10.56° C | 77% | 1014.2 hPa | 0 mm | - | 311 W/m² | - |
| 1777916917 | 10.56° C | 77% | 1014.1 hPa | 0 mm | - | 236 W/m² | - |
| 1777916624 | 10.56° C | 77% | 1014 hPa | 0 mm | - | 213 W/m² | - |
| 1777916330 | 10.56° C | 77% | 1013.9 hPa | 0 mm | - | 258 W/m² | - |
| 1777916017 | 10.56° C | 77% | 1013.9 hPa | 0 mm | - | 308 W/m² | - |
* Rain latest hour (hover to see other rain measurements)
** Current wind speed in m/s (hover to see current wind gust speed)